• MPC Preparation (Info)

  • MPEC 2006-D14 : 2006 DN

    The following Minor Planet Electronic Circular may be linked-to from your own Web pages, but must not otherwise be redistributed electronically.

    A form allowing access to any MPEC is at the bottom of this page.


    Read MPEC 2006-D13 Read MPEC 2006-D15


    M.P.E.C. 2006-D14                                Issued 2006 Feb. 21, 21:58 UT
    
         The Minor Planet Electronic Circulars contain information on unusual
             minor planets and routine data on comets.  They are published
       on behalf of Commission 20 of the International Astronomical Union by the
              Minor Planet Center, Smithsonian Astrophysical Observatory,
                              Cambridge, MA 02138, U.S.A.
    
                      Supported in part by the Brinson Foundation
                      Supported in part by the TABASGO Foundation
                 Prepared using the Tamkin Foundation Computer Network
    
                                  MPC@CFA.HARVARD.EDU
              URL http://cfa-www.harvard.edu/iau/mpc.html  ISSN 1523-6714
    
                                        2006 DN
    
    Observations:
         K06D00N* C2006 02 20.39634 10 31 06.96 +12 18 52.5          20.1 V ED014703
         K06D00N  C2006 02 20.39973 10 31 07.46 +12 18 50.4          19.5 V ED014703
         K06D00N  C2006 02 20.40315 10 31 07.86 +12 18 48.9          19.8 V ED014703
         K06D00N  C2006 02 20.40655 10 31 08.36 +12 18 46.8          19.5 V ED014703
         K06D00N  C2006 02 20.43712 10 31 12.46 +12 18 31.8          19.1 V ED014703
         K06D00N  C2006 02 20.44656 10 31 13.72 +12 18 26.7          19.5 V ED014703
         K06D00N  C2006 02 20.45602 10 31 15.09 +12 18 22.7          19.9 V ED014703
         K06D00N  C2006 02 20.46550 10 31 16.35 +12 18 17.5          19.5 V ED014703
         K06D00N  C2006 02 21.00934 10 32 54.58 +12 13 51.7                 ED014J95
         K06D00N  C2006 02 21.01190 10 32 54.91 +12 13 51.0                 ED014J95
         K06D00N  C2006 02 21.01459 10 32 55.33 +12 13 49.4          19.6 R ED014J95
         K06D00N  C2006 02 21.32032 10 33 47.76 +12 11 48.0          19.2 R ED014H36
         K06D00N  C2006 02 21.33016 10 33 49.13 +12 11 44.4          19.3 R ED014H36
         K06D00N  C2006 02 21.33486 10 33 50.04 +12 11 41.9          19.9 R ED014H36
         K06D00N  C2006 02 21.34418 10 33 52.59 +12 11 48.6          19.5 V ED014G96
         K06D00N  C2006 02 21.35285 10 33 53.78 +12 11 44.9          19.6 V ED014G96
         K06D00N  C2006 02 21.36140 10 33 55.00 +12 11 40.2          19.6 V ED014G96
         K06D00N  C2006 02 21.36170 10 33 55.06 +12 11 40.8          19.6 R ED014854
         K06D00N  C2006 02 21.36458 10 33 55.60 +12 11 39.1          19.8 R ED014854
         K06D00N  C2006 02 21.36745 10 33 56.00 +12 11 38.4          19.9 R ED014854
         K06D00N  C2006 02 21.37000 10 33 56.16 +12 11 36.0          19.3 V ED014G96
         K06D00N  C2006 02 21.41156 10 34 02.06 +12 11 14.3          19.7 V ED014G96
         K06D00N  C2006 02 21.42117 10 34 03.46 +12 11 09.0          19.5 V ED014G96
         K06D00N  C2006 02 21.43073 10 34 04.87 +12 11 03.8          19.6 V ED014G96
         K06D00N  C2006 02 21.44027 10 34 06.27 +12 10 58.6          19.3 V ED014G96
         K06D00N  C2006 02 21.85533 10 35 30.55 +12 07 10.8          20.0 V ED014151
         K06D00N  C2006 02 21.85769 10 35 30.95 +12 07 09.4          19.9 V ED014151
         K06D00N  C2006 02 21.86005 10 35 31.37 +12 07 08.8          19.2 V ED014151
    
    Observer details:
    151 Eschenberg Observatory, Winterthur.  Observer M. Griesser.  0.40-m f/5.9
        Hypergraph + CCD.
    703 Catalina Sky Survey.  Observer R. A. Kowalski.  Measurers E. C. Beshore,
        E. J. Christensen, G. J. Garradd, A. D. Grauer, R. E. Hill, R. A. Kowalski,
        S. M. Larson, R. H. McNaught.  0.68-m Schmidt + CCD.
    854 Sabino Canyon Observatory, Tucson.  Observer J. E. McGaha.  0.36-m f/10.0
        Schmidt-Cassegrain + CCD.
    G96 Mt. Lemmon Survey.  Observer S. M. Larson.  Measurers E. C. Beshore,
        E. J. Christensen, G. J. Garradd, A. D. Grauer, R. E. Hill, R. A. Kowalski,
        S. M. Larson, R. H. McNaught.  1.5-m reflector + CCD.
    H36 Sandlot Observatory, Scranton.  Observer G. Hug.  0.30-m
        Schmidt-Cassegrain + CCD.
    J95 Great Shefford.  Observer P. Birtwhistle.  0.40-m f/6.0 Schmidt-Cassegrain
        + CCD.
    
    Orbital elements:
    2006 DN                                                  Earth MOID = 0.0045 AU
    Epoch 2006 Mar. 6.0 TT = JDT 2453800.5                  MPC
    M 342.30821              (2000.0)            P               Q
    n   0.60531522     Peri.   98.02378     -0.95473731     +0.29741416
    a   1.3840390      Node    99.27866     -0.27472168     -0.87570373
    e   0.2770740      Incl.    0.26907     -0.11403798     -0.38037850
    P   1.63           H   24.7           G   0.15           U   8
    Residuals in seconds of arc
    060220 703  0.4-  0.5+    060221 J95  0.1-  0.2-    060221 G96  0.8-  0.2-
    060220 703  0.4+  0.0     060221 H36  0.3+  0.5-    060221 G96  0.7-  0.3-
    060220 703  0.3-  0.2+    060221 H36  0.2-  0.8+    060221 G96  0.6-  0.4-
    060220 703  0.4+  0.3-    060221 H36 (3.3+  0.7+)   060221 G96  0.5-  0.4-
    060220 703  0.3+  0.1-    060221 G96  0.5-  0.4-    060221 G96  0.6-  0.3-
    060220 703  0.2-  0.4-    060221 G96  0.7-  0.2+    060221 151  0.2-  0.7+
    060220 703  0.6+  0.5+    060221 G96  0.2-  0.3-    060221 151  0.0   0.3+
    060220 703  0.5-  0.2+    060221 854  0.1+  0.2+    060221 151  0.4+  0.7+
    060221 J95  0.1+  0.3-    060221 854  2.1+  0.1-
    060221 J95  0.5-  0.2+    060221 854  2.1+  0.6+
    
    Ephemeris:
    2006 DN                  a,e,i = 1.38, 0.28, 0                   q = 1.0006
    Date    TT    R. A. (2000) Decl.     Delta      r     Elong.  Phase     V
    2006 02 14    10 16.74   +12 53.7    0.103    1.090   173.3     6.0    20.4
    2006 02 24    10 42.67   +11 48.6    0.0701   1.060   175.8     4.0    19.4
    2006 03 06    11 42.27   +08 25.2    0.0428   1.034   170.5     9.1    18.5
    2006 03 16    14 20.44   -03 30.0    0.0269   1.015   140.1    38.9    18.4
    2006 03 26    17 41.16   -15 39.3    0.0349   1.004    99.6    78.4    20.2
    2006 04 05    19 09.82   -17 42.0    0.0555   1.000    88.3    88.5    21.5
    
    Gareth V. Williams           (C) Copyright 2006 MPC           M.P.E.C. 2006-D14
    

    Read MPEC 2006-D13 Read MPEC 2006-D15


    MPEC number:

    Enter an MPEC number in one of the following forms:

    • 1997-B01 (the full form)
    • J97B01 (the packed version of the full form)
    • B01 (the abbreviated form)